Time,TemperatureF,DewpointF,PressureIn,WindDirection,WindDirectionDegrees,WindSpeedMPH,WindSpeedGustMPH,Humidity,HourlyPrecipIn,Conditions,Clouds,dailyrainin,SoftwareType,DateUTC
2013-06-21 00:14:00,81.8,68.0,29.98,South,178,11.0,11.0,64,0.00,,,0.00,weatherlink.com 1.10,2013-06-21 05:14:00,
2013-06-21 00:29:00,81.7,69.0,29.97,South,187,5.0,12.0,66,0.00,,,0.00,weatherlink.com 1.10,2013-06-21 05:29:00,
2013-06-21 00:44:00,81.2,70.0,29.98,South,179,6.0,13.0,68,0.00,,,0.00,weatherlink.com 1.10,2013-06-21 05:44:00,
2013-06-21 00:59:00,80.7,70.0,29.98,South,179,6.0,12.0,70,0.00,,,0.00,weatherlink.com 1.10,2013-06-21 05:59:00,
2013-06-21 01:14:00,80.4,70.0,29.97,South,178,10.0,12.0,71,0.00,,,0.00,weatherlink.com 1.10,2013-06-21 06:14:00,
2013-06-21 01:29:00,80.0,71.0,29.97,South,185,3.0,12.0,73,0.00,,,0.00,weatherlink.com 1.10,2013-06-21 06:29:00,
2013-06-21 01:44:00,79.4,71.0,29.96,SSE,166,4.0,12.0,75,0.00,,,0.00,weatherlink.com 1.10,2013-06-21 06:44:00,
2013-06-21 01:59:00,78.9,71.0,29.96,South,189,7.0,9.0,76,0.00,,,0.00,weatherlink.com 1.10,2013-06-21 06:59:00,
2013-06-21 02:14:00,78.7,71.0,29.97,South,185,5.0,12.0,78,0.00,,,0.00,weatherlink.com 1.10,2013-06-21 07:14:00,
2013-06-21 02:29:00,78.5,72.0,29.96,SSW,197,4.0,13.0,79,0.00,,,0.00,weatherlink.com 1.10,2013-06-21 07:29:00,
2013-06-21 02:44:00,78.4,72.0,29.97,South,185,6.0,11.0,80,0.00,,,0.00,weatherlink.com 1.10,2013-06-21 07:44:00,
2013-06-21 02:59:00,78.2,72.0,29.97,South,185,4.0,12.0,81,0.00,,,0.00,weatherlink.com 1.10,2013-06-21 07:59:00,
2013-06-21 03:15:00,77.8,72.0,29.96,South,179,11.0,12.0,82,0.00,,,0.00,weatherlink.com 1.10,2013-06-21 08:15:00,
2013-06-21 03:30:00,77.6,72.0,29.96,South,178,3.0,13.0,83,0.00,,,0.00,weatherlink.com 1.10,2013-06-21 08:30:00,
2013-06-21 03:45:00,77.3,72.0,29.96,South,176,2.0,9.0,83,0.00,,,0.00,weatherlink.com 1.10,2013-06-21 08:45:00,
2013-06-21 04:00:00,77.1,72.0,29.96,South,184,4.0,11.0,84,0.00,,,0.00,weatherlink.com 1.10,2013-06-21 09:00:00,
2013-06-21 04:15:00,76.9,72.0,29.97,South,178,5.0,9.0,84,0.00,,,0.00,weatherlink.com 1.10,2013-06-21 09:15:00,
2013-06-21 04:30:00,76.7,72.0,29.97,SSE,155,2.0,12.0,84,0.00,,,0.00,weatherlink.com 1.10,2013-06-21 09:30:00,
2013-06-21 04:45:00,76.4,72.0,29.97,South,174,2.0,7.0,85,0.00,,,0.00,weatherlink.com 1.10,2013-06-21 09:45:00,
2013-06-21 05:00:00,76.3,72.0,29.97,SSE,166,5.0,10.0,86,0.00,,,0.00,weatherlink.com 1.10,2013-06-21 10:00:00,
2013-06-21 05:15:00,76.1,72.0,29.98,South,170,4.0,7.0,86,0.00,,,0.00,weatherlink.com 1.10,2013-06-21 10:15:00,
2013-06-21 05:30:00,75.9,72.0,29.98,SSW,199,3.0,7.0,86,0.00,,,0.00,weatherlink.com 1.10,2013-06-21 10:30:00,
2013-06-21 05:45:00,75.4,71.0,29.98,South,180,3.0,8.0,87,0.00,,,0.00,weatherlink.com 1.10,2013-06-21 10:45:00,
2013-06-21 06:00:00,75.1,71.0,29.98,South,182,4.0,5.0,88,0.00,,,0.00,weatherlink.com 1.10,2013-06-21 11:00:00,
2013-06-21 06:15:00,74.8,71.0,29.98,South,183,2.0,6.0,88,0.00,,,0.00,weatherlink.com 1.10,2013-06-21 11:15:00,
2013-06-21 06:30:00,74.6,71.0,29.99,South,181,2.0,7.0,88,0.00,,,0.00,weatherlink.com 1.10,2013-06-21 11:30:00,
2013-06-21 06:45:00,74.4,71.0,29.99,South,182,2.0,5.0,89,0.00,,,0.00,weatherlink.com 1.10,2013-06-21 11:45:00,
2013-06-21 07:00:00,74.4,71.0,29.99,South,188,1.0,6.0,89,0.00,,,0.00,weatherlink.com 1.10,2013-06-21 12:00:00,
2013-06-21 07:15:00,74.6,71.0,30.00,South,191,3.0,6.0,89,0.00,,,0.00,weatherlink.com 1.10,2013-06-21 12:15:00,
2013-06-21 07:30:00,74.9,72.0,30.00,SSW,194,2.0,6.0,89,0.00,,,0.00,weatherlink.com 1.10,2013-06-21 12:30:00,
2013-06-21 07:45:00,75.0,72.0,30.00,SSE,156,3.0,6.0,89,0.00,,,0.00,weatherlink.com 1.10,2013-06-21 12:45:00,
2013-06-21 08:00:00,76.2,73.0,30.01,South,170,4.0,7.0,88,0.00,,,0.00,weatherlink.com 1.10,2013-06-21 13:00:00,
2013-06-21 08:15:00,77.5,73.0,30.01,SSE,160,5.0,7.0,85,0.00,,,0.00,weatherlink.com 1.10,2013-06-21 13:15:00,
2013-06-21 08:30:00,78.5,73.0,30.01,South,185,5.0,10.0,84,0.00,,,0.00,weatherlink.com 1.10,2013-06-21 13:30:00,
2013-06-21 08:45:00,79.4,73.0,30.01,SSW,197,3.0,12.0,81,0.00,,,0.00,weatherlink.com 1.10,2013-06-21 13:45:00,
2013-06-21 09:00:00,81.1,72.0,30.01,SSW,212,5.0,17.0,74,0.00,,,0.00,weatherlink.com 1.10,2013-06-21 14:00:00,
2013-06-21 09:15:00,82.6,73.0,30.01,SSW,204,10.0,15.0,72,0.00,,,0.00,weatherlink.com 1.10,2013-06-21 14:15:00,
2013-06-21 09:30:00,81.6,71.0,30.01,SSW,203,10.0,15.0,70,0.00,,,0.00,weatherlink.com 1.10,2013-06-21 14:30:00,
2013-06-21 09:45:00,82.5,71.0,30.01,South,189,9.0,17.0,69,0.00,,,0.00,weatherlink.com 1.10,2013-06-21 14:45:00,
2013-06-21 10:00:00,81.9,71.0,30.02,SSW,204,9.0,19.0,69,0.00,,,0.00,weatherlink.com 1.10,2013-06-21 15:00:00,
2013-06-21 10:15:00,82.8,71.0,30.02,SSW,199,11.0,17.0,68,0.00,,,0.00,weatherlink.com 1.10,2013-06-21 15:15:00,
2013-06-21 10:30:00,84.3,72.0,30.01,SSW,205,16.0,17.0,67,0.00,,,0.00,weatherlink.com 1.10,2013-06-21 15:30:00,
2013-06-21 10:45:00,84.9,72.0,30.02,South,189,7.0,18.0,65,0.00,,,0.00,weatherlink.com 1.10,2013-06-21 15:45:00,
2013-06-21 11:00:00,85.2,70.0,30.02,SSW,201,9.0,15.0,61,0.00,,,0.00,weatherlink.com 1.10,2013-06-21 16:00:00,
2013-06-21 11:16:00,86.3,71.0,30.02,SSW,193,17.0,17.0,60,0.00,,,0.00,weatherlink.com 1.10,2013-06-21 16:16:00,
2013-06-21 11:30:00,88.2,72.0,30.02,South,175,6.0,16.0,58,0.00,,,0.00,weatherlink.com 1.10,2013-06-21 16:30:00,
2013-06-21 11:45:00,88.6,72.0,30.02,South,186,6.0,15.0,59,0.00,,,0.00,weatherlink.com 1.10,2013-06-21 16:45:00,
2013-06-21 12:16:00,89.4,70.0,30.01,South,180,4.0,14.0,53,0.00,,,0.00,weatherlink.com 1.10,2013-06-21 17:16:00,
2013-06-21 12:31:00,91.1,71.0,30.01,South,190,12.0,14.0,52,0.00,,,0.00,weatherlink.com 1.10,2013-06-21 17:31:00,
2013-06-21 12:46:00,92.0,71.0,30.01,SSE,167,12.0,18.0,50,0.00,,,0.00,weatherlink.com 1.10,2013-06-21 17:46:00,
2013-06-21 13:01:00,92.2,70.0,30.00,South,184,12.0,17.0,49,0.00,,,0.00,weatherlink.com 1.10,2013-06-21 18:01:00,
2013-06-21 13:31:00,93.2,69.0,29.99,South,179,8.0,16.0,46,0.00,,,0.00,weatherlink.com 1.10,2013-06-21 18:31:00,
2013-06-21 13:46:00,93.4,69.0,29.99,South,174,10.0,18.0,45,0.00,,,0.00,weatherlink.com 1.10,2013-06-21 18:46:00,
2013-06-21 14:16:00,94.9,70.0,29.98,South,176,5.0,19.0,45,0.00,,,0.00,weatherlink.com 1.10,2013-06-21 19:16:00,
2013-06-21 14:31:00,93.4,69.0,29.97,South,188,6.0,17.0,45,0.00,,,0.00,weatherlink.com 1.10,2013-06-21 19:31:00,
2013-06-21 15:01:00,94.7,68.0,29.97,SSE,162,3.0,17.0,41,0.00,,,0.00,weatherlink.com 1.10,2013-06-21 20:01:00,
2013-06-21 15:16:00,95.4,69.0,29.96,SSE,160,11.0,19.0,42,0.00,,,0.00,weatherlink.com 1.10,2013-06-21 20:16:00,
2013-06-21 15:31:00,94.6,67.0,29.95,SSE,157,7.0,23.0,40,0.00,,,0.00,weatherlink.com 1.10,2013-06-21 20:31:00,
2013-06-21 16:01:00,95.2,65.0,29.95,South,177,7.0,20.0,37,0.00,,,0.00,weatherlink.com 1.10,2013-06-21 21:01:00,
2013-06-21 16:16:00,95.5,66.0,29.95,South,174,9.0,20.0,38,0.00,,,0.00,weatherlink.com 1.10,2013-06-21 21:16:00,
2013-06-21 16:31:00,95.6,66.0,29.94,SSW,201,8.0,18.0,38,0.00,,,0.00,weatherlink.com 1.10,2013-06-21 21:31:00,
2013-06-21 16:46:00,95.3,66.0,29.94,South,190,11.0,21.0,38,0.00,,,0.00,weatherlink.com 1.10,2013-06-21 21:46:00,
2013-06-21 17:01:00,95.3,67.0,29.93,South,190,9.0,17.0,39,0.00,,,0.00,weatherlink.com 1.10,2013-06-21 22:01:00,
2013-06-21 17:16:00,94.9,66.0,29.93,South,189,5.0,15.0,39,0.00,,,0.00,weatherlink.com 1.10,2013-06-21 22:16:00,
2013-06-21 17:31:00,94.9,63.0,29.93,South,185,11.0,19.0,35,0.00,,,0.00,weatherlink.com 1.10,2013-06-21 22:31:00,
2013-06-21 17:46:00,94.7,63.0,29.92,South,178,9.0,21.0,35,0.00,,,0.00,weatherlink.com 1.10,2013-06-21 22:46:00,
2013-06-21 18:01:00,94.4,63.0,29.92,South,176,11.0,20.0,35,0.00,,,0.00,weatherlink.com 1.10,2013-06-21 23:01:00,
2013-06-21 18:16:00,94.3,63.0,29.91,South,185,3.0,22.0,35,0.00,,,0.00,weatherlink.com 1.10,2013-06-21 23:16:00,
2013-06-21 18:31:00,94.3,65.0,29.91,South,178,5.0,17.0,38,0.00,,,0.00,weatherlink.com 1.10,2013-06-21 23:31:00,
2013-06-21 18:46:00,92.8,64.0,29.91,South,191,8.0,16.0,39,0.00,,,0.00,weatherlink.com 1.10,2013-06-21 23:46:00,
2013-06-21 19:01:00,92.9,64.0,29.91,SSW,197,4.0,15.0,38,0.00,,,0.00,weatherlink.com 1.10,2013-06-22 00:01:00,
2013-06-21 19:16:00,92.5,63.0,29.91,SSE,166,7.0,17.0,37,0.00,,,0.00,weatherlink.com 1.10,2013-06-22 00:16:00,
2013-06-21 19:31:00,92.0,63.0,29.91,SSE,163,4.0,16.0,38,0.00,,,0.00,weatherlink.com 1.10,2013-06-22 00:31:00,
2013-06-21 19:46:00,91.4,64.0,29.91,South,174,5.0,12.0,40,0.00,,,0.00,weatherlink.com 1.10,2013-06-22 00:46:00,
2013-06-21 20:01:00,90.8,65.0,29.91,South,186,8.0,14.0,42,0.00,,,0.00,weatherlink.com 1.10,2013-06-22 01:01:00,
2013-06-21 20:16:00,90.2,65.0,29.91,SSE,158,6.0,12.0,43,0.00,,,0.00,weatherlink.com 1.10,2013-06-22 01:16:00,
2013-06-21 20:31:00,89.2,65.0,29.91,SSE,153,1.0,9.0,44,0.00,,,0.00,weatherlink.com 1.10,2013-06-22 01:31:00,
2013-06-21 20:46:00,88.0,65.0,29.91,South,187,5.0,7.0,46,0.00,,,0.00,weatherlink.com 1.10,2013-06-22 01:46:00,
2013-06-21 21:01:00,87.3,65.0,29.92,South,181,2.0,6.0,47,0.00,,,0.00,weatherlink.com 1.10,2013-06-22 02:01:00,
2013-06-21 21:16:00,86.3,64.0,29.92,South,176,3.0,5.0,48,0.00,,,0.00,weatherlink.com 1.10,2013-06-22 02:16:00,
2013-06-21 21:31:00,85.3,64.0,29.92,SSE,167,6.0,6.0,49,0.00,,,0.00,weatherlink.com 1.10,2013-06-22 02:31:00,
2013-06-21 21:46:00,84.7,64.0,29.91,SSW,196,3.0,7.0,50,0.00,,,0.00,weatherlink.com 1.10,2013-06-22 02:46:00,
2013-06-21 22:01:00,84.5,64.0,29.92,South,191,2.0,9.0,51,0.00,,,0.00,weatherlink.com 1.10,2013-06-22 03:01:00,
2013-06-21 22:16:00,84.3,64.0,29.92,South,174,3.0,6.0,51,0.00,,,0.00,weatherlink.com 1.10,2013-06-22 03:16:00,
2013-06-21 22:31:00,83.6,64.0,29.93,SSE,166,2.0,6.0,52,0.00,,,0.00,weatherlink.com 1.10,2013-06-22 03:31:00,
2013-06-21 22:46:00,83.4,64.0,29.94,South,170,3.0,6.0,52,0.00,,,0.00,weatherlink.com 1.10,2013-06-22 03:46:00,
2013-06-21 23:01:00,82.3,64.0,29.94,SSE,167,2.0,6.0,54,0.00,,,0.00,weatherlink.com 1.10,2013-06-22 04:01:00,
2013-06-21 23:16:00,81.5,64.0,29.94,SSE,158,2.0,5.0,55,0.00,,,0.00,weatherlink.com 1.10,2013-06-22 04:16:00,
2013-06-21 23:31:00,81.5,64.0,29.95,South,180,2.0,8.0,55,0.00,,,0.00,weatherlink.com 1.10,2013-06-22 04:31:00,
2013-06-21 23:46:00,81.3,64.0,29.95,SE,145,2.0,9.0,56,0.00,,,0.00,weatherlink.com 1.10,2013-06-22 04:46:00,